Voltar ao catálogo

SL-16 DEB

AtivoLEO
NORAD 22602·DEBRIS·🇷🇺 Russia

Lançado Mar 26, 1993 de Baikonur Cosmodrome

Loading…

Próximas Passagens (próximas 24 horas)

TLE

AtualizadoSource: Space-Track

Época: Sep 14, 2026, 11:02 UTC

1 22602U 93016L   26257.46025854 -.00000013  00000-0  27515-4 0  9996
2 22602  71.0446 137.8490 0200442 325.4307 212.4033 13.74173413677407

Acompanhe SL-16 DEB em tempo real com AllMySat

Download on the App Store